Location: Asheville, NC
(35.6000°N, 82.5500°W)
Time: 18:19:00
(UTC-04:00)

STARS - Pass Details

Date: 10 March 2018
Orbit: 626 x 640 km, 98.3° (Epoch: 20 June)

Event Time Altitude Azimuth Distance (km) Brightness Sun altitude
Rises 04:36:00 0° 114° (ESE) 2,932 ? -27.4°
Reaches altitude 10° 04:40:15 10° 74° (ENE) 2,030 ? -26.6°
Maximum altitude 04:40:59 10° 64° (ENE) 2,005 ? -26.4°
Drops below altitude 10° 04:41:44 10° 54° (NE) 2,032 ? -26.3°
Sets 04:45:59 0° 14° (NNE) 2,946 ? -25.5°
